Hourly Data Report for March 07, 2020

All times are specified in Local Standard Time (LST). Add 1 hour to adjust for Daylight Saving Time where and when it is observed.

OTTAWA INTL A
ONTARIO
Current Station Operator: NAVCAN

45°19'00.000" N
75°40'00.000" W
114.90 m
6106001
71628
YOW

Download Data

Hourly Data (March 2020)
Hourly Data Report for March 7, 2020
TIME Temp Definition
°C
Dew Point Definition
°C
Rel Hum Definition
%
Wind Dir Definition
10's deg

Wind Spd Definition
km/h
Visibility Definition
km
Stn Press Definition
kPa
Hmdx Definition


Wind Chill Definition


Weather Definition


00:00 -5.5 -12.4 58 2 21 24.1 101.13   -12 LegendNANA
01:00 -6.2 -12.9 59 2 20 24.1 101.17   -13 Clear
02:00 -6.5 -13.4 59 1 25 24.1 101.23   -14 LegendNANA
03:00 -7.3 -13.7 61 36 14 24.1 101.26   -13 LegendNANA
04:00 -8.1 -14.1 62 34 16 24.1 101.30   -15 Clear
05:00 -8.8 -13.9 67 33 18 24.1 101.37   -16 LegendNANA
06:00 -9.4 -14.1 69 34 16 24.1 101.40   -16 LegendNANA
07:00 -11.7 -15.5 74 31 17 24.1 101.52   -19 Clear
08:00 -9.0 -14.5 65 33 15 24.1 101.61   -16 LegendNANA
09:00 -8.2 -15.0 58 34 17 24.1 101.67   -15 LegendNANA
10:00 -6.5 -14.8 52 29 8 24.1 101.69   -10 Clear
11:00 -5.8 -13.6 54 31 12 24.1 101.66   -11 LegendNANA
12:00 -4.6 -13.3 51 28 7 24.1 101.63   -8 LegendNANA
13:00 -4.2 -13.0 50 24 16 24.1 101.57   -10 Mainly Clear
14:00 -3.3 -13.2 47 24 16 24.1 101.50   -9 LegendNANA
15:00 -2.5 -13.4 43 25 14 24.1 101.44   -7 LegendNANA
16:00 -1.7 -20.2 23 25 17 24.1 101.40   -7 Mainly Clear
17:00 -1.9 -19.0 26 26 10 24.1 101.39   -6 LegendNANA
18:00 -2.6 -15.2 38 28 6 24.1 101.32   -5 LegendNANA
19:00 -2.5 -17.0 32 15 6 24.1 101.31   -5 Mostly Cloudy
20:00 -2.4 -15.5 36 17 12 24.1 101.30   -7 LegendNANA
21:00 -1.8 -9.2 57 19 14 24.1 101.26   -6 LegendNANA
22:00 -1.6 -8.9 58 20 15 24.1 101.24   -6 Cloudy
23:00 -1.2 -10.2 51 20 15 24.1 101.16   -6 LegendNANA

Notes on Data Quality.

Legend

  • E = Estimated
  • M = Missing
  • NA = Not Available*
  • [empty] = Indicates an unobserved value
Date modified: